Regional Weather Roundup
Issued by NWS Lake Charles, LA

Home | Current Version | Previous Version | Text Only | Print | Product List | Glossary On
Versions: 1 2 3 4 5 6 7 8 9 10 11 12 13 14 15 16 17 18 19 20 21 22 23 24 25 26 27 28 29 30 31 32 33 34 35 36 37 38 39 40 41 42 43 44 45 46 47 48 49 50
000
ASUS44 KLCH 201410
RWRLCH
REGIONAL WEATHER ROUNDUP
NATIONAL WEATHER SERVICE LAKE CHARLES LA
800 AM CST MON NOV 20 2017

Note: "fair" indicates few or no clouds below 12,000 feet with no
significant weather and/or obstructions to visibility.


ACROSS SOUTHEAST TEXAS

CITY           SKY/WX    TMP DP  RH WIND       PRES   REMARKS
BEAUMONT       MOSUNNY   50  41  71 E5        30.23S
BEAUMONT CITY  FAIR      47  40  76 E3        30.24S
ORANGE         MOSUNNY   44  42  91 NE3       30.26S
JASPER         MOSUNNY   42  39  91 CALM      30.26S
$$

ACROSS CENTRAL LOUISIANA

CITY           SKY/WX    TMP DP  RH WIND       PRES   REMARKS
LEESVILLE      MOSUNNY   43  37  79 E3        30.25R
FULLERTON      FAIR      39  38  96 CALM      30.23R
ALEXANDRIA INT MOSUNNY   37  35  92 CALM      30.25R
ESLER FIELD    CLOUDY    35  35 100 CALM      30.26R
DERIDDER       FAIR      41  34  75 CALM      30.27S
OAKDALE        MOSUNNY   39  38  95 CALM      30.27R
OPELOUSAS      FAIR      41  35  80 CALM      30.26R
$$

ACROSS SOUTHWEST AND SOUTH CENTRAL LOUISIANA

CITY           SKY/WX    TMP DP  RH WIND       PRES   REMARKS
SULPHUR        MOSUNNY   48  36  62 E7        30.26R
LAKE CHARLES   MOSUNNY   44  38  79 E3        30.24S
CHENNAULT INT  PTSUNNY   43  39  87 CALM      30.25S
CAMERON PHI    SUNNY     46  36  66 E7        30.25R
DEQUINCY       FAIR      40  35  81 CALM      30.25S
JENNINGS       FAIR      42  37  82 CALM      30.26S
LAFAYETTE      PTSUNNY   42  38  85 CALM      30.26R
NEW IBERIA     MOSUNNY   45  33  63 E3        30.26R
ABBEVILLE      FAIR      41  40  97 CALM      30.26S
PATTERSON      PTSUNNY   47  39  74 NE6       30.25R
SALT POINT       N/A      1  32 100 CALM      30.23R
$$

SELECTED SITES ACROSS THE REGION

CITY           SKY/WX    TMP DP  RH WIND       PRES   REMARKS
HOUSTON BUSH   PTSUNNY   47  42  83 CALM      30.22S
HOUSTON HOBBY  PTSUNNY   53  41  63 E6        30.21S
GALVESTON      SUNNY     62  43  49 E10       30.20F
COLLEGE STAT   MOSUNNY   47  36  65 SE5       30.22R
CONROE         MOSUNNY   43  40  89 E3        30.23R
HUNTSVILLE     MOSUNNY   51  31  46 VRB3      30.22R
LUFKIN         MOSUNNY   42  39  89 CALM      30.24R
SHREVEPORT     CLOUDY    36  35  96 CALM      30.24R
MONROE         CLOUDY    33  33 100 CALM      30.28R FOG
NATCHEZ MS     MOSUNNY   39  33  79 SE5       30.26R
BATON ROUGE    MOSUNNY   41  33  73 NE3       30.26R
N.O. INTL ARPT PTSUNNY   51  37  58 E10       30.24S
SLIDELL        MOSUNNY   42  35  76 E3        30.25S
$$

MARINE REPORTS

STATION/POSITION TIME  SKY/WX   TEMP    WIND        PRES    VSBY
                                AIR SEA DIR/SP/G
                 (UTC)          (F)     (DEG/KT/KT) (MB)    (MI)
BUOY 30 S HIGH I 1250            61 71   80/ 14/ 17 1022.6
WVE H/P(F/S)=  2/ 4

SEA RIM ST PARK  1400            49      60/  7/  8 1024.0F
PORT ARTHUR      1336            52 67  100/  7/ 10 1023.9F
SABINE PASS N    1336            50 69   60/  9/ 12 1025.2R
TEXAS POINT      NOT AVBL
CALCASIEU PASS   1336            47 67   80/  6/  9 1023.0R
LK CHARLES BEACH 1336            45 69              1023.7S
MARSH ISLAND     1300            53                   N/A
FRESH WATER LOCK 1336            49 66   50/  5/  6 1024.0R
AMERADA PASS     1336            47 57   50/  2/  5 1023.9R
$$



USA.gov is the U.S. government's official web portal to all federal, state and local government web resources and services.